Location: Владивосток
(43.1151°N, 131.8856°E)
Time: 11:01:42
(UTC+10:00)

NOAA 18 - Pass Details

Date: 03 May 2024
Orbit: 837 x 859 km, 98.9° (Epoch: 29 May)

Event Time Altitude Azimuth Distance (km) Brightness Sun altitude
Exits shadow 22:59:34 55° 117° (ESE) 1,026 5.3 -23.9°
Maximum altitude 23:00:31 64° 72° (ENE) 947 5.3 -24.0°
Drops below altitude 10° 23:05:59 10° 352° (N) 2,496 8.5 -24.5°
Sets 23:08:23 0° 350° (N) 3,433 9.5 -24.8°
